Regional Weather Roundup
Issued by NWS Wilmington, NC

Home | Current Version | Previous Version | Text Only | Print | Product List | Glossary On
Versions: 1 2 3 4 5 6 7 8 9 10 11 12 13 14 15 16 17 18 19 20 21 22 23 24 25 26
000
ASUS42 KILM 261613
RWRILM
RWRILM
REGIONAL HOURLY WEATHER ROUNDUP
NATIONAL WEATHER SERVICE WILMINGTON NC
1200 PM EDT THU MAY 26 2016

NOTE: "FAIR" INDICATES FEW OR NO CLOUDS BELOW 12,000 FEET WITH NO
SIGNIFICANT WEATHER AND/OR OBSTRUCTIONS TO VISIBILITY.

...............WFO WILMINGTON COUNTY WARNING AREA...............

......COASTAL NC AND SC COUNTIES......

CITY           SKY/WX    TMP DP  RH WIND       PRES   REMARKS
WILMINGTON     PTSUNNY   83  64  52 VRB6      30.20F
N MYRTLE BEACH SUNNY     79  67  66 S14       30.21S
MYRTLE BEACH   MOSUNNY   82  63  51 S15       30.23S

......INLAND NC AND SC COUNTIES.......

CITY           SKY/WX    TMP DP  RH WIND       PRES   REMARKS
LUMBERTON      MOSUNNY   85  64  49 VRB3      30.18F
ELIZABETHTOWN  SUNNY     81  65  57 S9        30.19F
WHITEVILLE     SUNNY     82  62  50 S5        30.19F
FLORENCE       SUNNY     83  66  56 SW8       30.19F
DARLINGTON     SUNNY     82  66  58 SW8       30.19F
KINGSTREE      FAIR      82  63  51 SW6       30.20F
HARTSVILLE     FAIR      81  61  50 SW8       30.19S
BENNETTSVILLE  FAIR      86  64  48 S7        30.18S
CONWAY         FAIR      81  63  54 S6        30.20F
GEORGETOWN     NOT AVBL
MARION         FAIR      82  64  54 W8        30.19F

....................REST OF NORTH CAROLINA......................

.........EASTERN NC.........

CITY           SKY/WX    TMP DP  RH WIND       PRES   REMARKS
CAPE HATTERAS  SUNNY     77  67  71 SW9       30.21S
JACKSONVILLE   SUNNY     84  64  50 SW6       30.19F
MOREHEAD CITY  SUNNY     79  68  69 S13       30.21F
KENANSVILLE    SUNNY     82  63  52 SW5       30.19F
NEW BERN       SUNNY     83  62  49 W7        30.20F
ELIZABETH CITY SUNNY     82  66  58 S8        30.16F

.........CENTRAL NC.........

CITY           SKY/WX    TMP DP  RH WIND       PRES   REMARKS
RALEIGH DURHAM MOSUNNY   85  62  46 W6        30.17S
ROCKY MOUNT    SUNNY     84  65  52 S9        30.16F
ROANOKE RAPIDS NOT AVBL
FAYETTEVILLE   SUNNY     83  62  49 SW7       30.17F
HOFFMAN        SUNNY     84  60  44 S8        30.17F

.........WESTERN NC.........

CITY           SKY/WX    TMP DP  RH WIND       PRES   REMARKS
CHARLOTTE      MOSUNNY   82  62  50 SW7       30.20R
GREENSBORO     PTSUNNY   81  61  50 S5        30.17S
HICKORY        NOT AVBL
BOONE          NOT AVBL
ASHEVILLE      NOT AVBL

.....................REST OF SOUTH CAROLINA.....................

.........EASTERN SC.........

CITY           SKY/WX    TMP DP  RH WIND       PRES   REMARKS
CHARLESTON     MOSUNNY   83  62  49 SW5       30.21S
BEAUFORT MCAS  MOSUNNY   84  64  50 SE5       30.21S
HILTON HEAD    SUNNY     86  66  51 S9        30.22F

.........CENTRAL SC.........

CITY           SKY/WX    TMP DP  RH WIND       PRES   REMARKS
COLUMBIA       MOSUNNY   86  60  41 SW9       30.18S
ORANGEBURG     SUNNY     83  62  49 S8        30.20F
SUMTER SHAW    SUNNY     83  64  52 W7        30.17F

.........WESTERN SC.........

CITY           SKY/WX    TMP DP  RH WIND       PRES   REMARKS
GREENVILLE     NOT AVBL
ROCK HILL      SUNNY     82  61  48 SW9       30.20R
ANDERSON       SUNNY     82  62  50 VRB5      30.19S
CLEMSON        NOT AVBL
GREENWOOD      CLOUDY    83  60  45 W7        30.21R


...................COASTAL AND OFFSHORE REPORTS..................

................LOCAL PIERS AND NC RESERVE................


STATION/POSITION TIME  SKY/WX   TEMP    WIND        PRES    VSBY
                                AIR SEA DIR/SP/G
                 (UTC)          (F)     (DEG/KT/KT) (MB)    (MI)
JOHNY MRCER PIER 1500            75 74  180/ 11/ 12 1022.0F
NC RESRV MASNBRO NOT AVBL
OCEAN CREST PIER NOT AVBL
SPRINGMAID  PIER 1500            75 73  150/  9/ 10 1022.8F


................COASTAL AND OFFSHORE BUOYS................


STATION/POSITION TIME  SKY/WX   TEMP    WIND        PRES    VSBY
                                AIR SEA DIR/SP/G
                 (UTC)          (F)     (DEG/KT/KT) (MB)    (MI)
DIMNDSHOAL 41025 1550            73 70  240/  6/  8 1023.0F
WVE H/P(F/S)=  2/ 8 SWL H/P/D(F/S/D)=  2/130/ 8

CAPE LOOKOUT     1600            78     210/  8/ 10 1022.7F
ONSLOW BAY 41036 NOT AVBL
ONSLOW BAY 41064 1508            76 74  240/  4/  8 1023.5F
ONSLOW BAY 41159 1525               75                N/A
WVE H/P(F/S)=  2/ 8

5SE WRITBC 41038 1508            75 74  200/  8/ 12 1023.8F
MASNBO INL 41110 1506               74                N/A
WVE H/P(F/S)=  2/ 8

WILM HARBR 41108 1526               75                N/A
WVE H/P(F/S)=  2/ 9

27SE WRITB 41037 1508            76 74  240/  4/  6 1022.7F
FRYING PAN 41013 1500            77 77  180/  6/  6 1023.0F
SUNST NRSH 41024 1508            75 75  220/  6/ 10 1022.8F
CAPRS NRSH 41029 1508            76 76  220/  8/ 10 1023.1F
EDISTO     41004 1550            77 77  150/  4/  4 1023.1R
WVE H/P(F/S)=  2/ 8 SWL H/P/D(F/S/D)=  2/ 8



..........OFFSHORE BUOYS BEYOND 100 NM OFFSHORE...........
.....IN A TRIANGLE---HAT TO BERMUDA TO BAHAMAS TO HAT.....


STATION/POSITION TIME  SKY/WX   TEMP    WIND        PRES    VSBY
                                AIR SEA DIR/SP/G
                 (UTC)          (F)     (DEG/KT/KT) (MB)    (MI)
150E HAT   41001 NOT AVBL
W BERMUDA  41048 1550            74 75   60/ 16/ 19 1022.2F
WVE H/P(F/S)=  4/ 6 SWL H/P/D(F/S/D)=  2/130/ 8

ATLANTIC S 41049 1550            77 78  130/ 17/ 25 1020.7F
WVE H/P(F/S)=  4/ 8 SWL H/P/D(F/S/D)=  3/110/ 8

E BAHAMAS  41046 1500            79 81  180/ 10/ 12 1017.0S
NE BAHAMAS 41047 1500            77 79   40/ 17/ 21 1017.1F
120E CANVRL41010 1520            76 78   60/ 12/ 14 1020.8F

END




USA.gov is the U.S. government's official web portal to all federal, state and local government web resources and services.